Location: *
(41.7492°S, 135.4150°W)
Time: 06:12:32
(UTC+00:00)

NUDT-PHONESAT - Visible Passes

Search period start: 28 June 2022 00:00
Search period end: 08 July 2022 00:00
Orbit: 452 x 461 km, 97.4° (Epoch: 27 June)

Date Brightness Start Highest point End Pass type
(mag) Time Alt. Az. Time Alt. Az. Time Alt. Az.
28 Jun ? 14:43:19 10° NE 14:46:24 31° ESE 14:49:32 10° S visible
29 Jun ? 14:12:02 10° E 14:13:43 13° ESE 14:15:24 10° SE visible
29 Jun ? 15:43:02 10° NNW 15:46:14 36° W 15:49:30 10° SSW visible
30 Jun ? 15:09:47 10° NNE 15:13:13 74° ESE 15:16:43 10° S visible
01 Jul ? 14:37:24 10° NE 14:40:20 26° ESE 14:43:17 10° SSE visible
02 Jul ? 14:06:32 10° E 14:07:32 11° ESE 14:08:34 10° SE visible
02 Jul ? 15:36:40 10° N 15:39:59 45° W 15:43:21 10° SSW visible
03 Jul ? 15:03:29 10° NNE 15:06:53 59° ESE 15:10:19 10° S visible
04 Jul ? 14:31:11 10° ENE 14:33:54 22° ESE 14:36:39 10° SSE visible
05 Jul ? 15:30:00 10° N 15:33:23 57° W 15:36:49 10° SSW visible
06 Jul ? 14:56:53 10° NNE 15:00:12 47° ESE 15:03:34 10° S visible
07 Jul ? 14:24:41 10° ENE 14:27:08 18° ESE 14:29:36 10° SSE visible
07 Jul ? 15:56:55 10° NNW 15:59:49 25° W 16:02:45 10° SW visible
